Simultaneous Nadir Overpasses (SNOs) Predictions

Prediction of SNOs between LANDSAT-8 and NOAA-19 Satellite Orbit:

Table of predicted SNOs for the next 14.0 days since TLE Epoch: 8/17/2019
Index Date (LANDSAT-8) Time (LANDSAT-8) Lat,Lon (LANDSAT-8) SZA (LANDSAT-8 ) Date (NOAA-19) Time (NOAA-19) Lat,Lon (NOAA-19) SZA (NOAA-19 ) Distance(km) Time Diff (sec)
1 08/18/2019 10:00:58 79.00, 50.55 66.51 08/18/2019 10:01:09 78.99, 50.50 66.50 1.17 11
2 08/20/2019 15:34:43 -79.01, 147.20 112.74 08/20/2019 15:34:28 -79.01, 147.12 112.75 1.78 15
3 08/22/2019 21:08:27 79.01,-116.23 68.01 08/22/2019 21:07:57 79.02,-116.24 68.01 0.74 30
4 08/22/2019 21:57:55 -78.98, 51.23 112.02 08/22/2019 21:58:51 -78.99, 51.29 111.99 1.23 56
5 08/25/2019 02:42:12 -79.03, -19.57 111.20 08/25/2019 02:41:15 -79.02, -19.51 111.22 1.51 57
6 08/25/2019 03:31:38 79.02, 148.02 68.81 08/25/2019 03:32:20 78.99, 147.96 68.79 3.38 42
7 08/27/2019 08:15:56 79.02, 76.96 69.58 08/27/2019 08:14:45 79.06, 76.91 69.59 4.09 71
8 08/27/2019 09:05:23 -79.04,-115.31 110.39 08/27/2019 09:05:38 -79.00,-115.35 110.42 4.18 15
9 08/29/2019 14:39:07 79.03, -18.80 70.40 08/29/2019 14:39:08 79.04, -18.93 70.40 3.01 1




NCC Satellite Simultaneous Nadir Overpasses (SNOs) Prediction Service
